Location: ???? ???? ?????
(31.2680°N, 31.7283°E)
Time: 09:46:10
(UTC+00:00)

NOSS 3-4 (A) - Pass Details

Date: 13 July 2020
Orbit: 892 x 1320 km, 63.4° (Epoch: 12 July)

Event Time Altitude Azimuth Distance (km) Brightness Sun altitude
Rises 19:55:37 0° 328° (NNW) 3,939 7.9 -29.4°
Reaches altitude 10° 19:58:12 10° 327° (NNW) 3,037 7.0 -29.7°
Maximum altitude 20:05:32 76° 243° (WSW) 1,262 3.9 -30.5°
Enters shadow 20:06:21 69° 196° (SSW) 1,307 3.9 -30.6°
